Regional Weather Roundup
Issued by NWS Charleston, SC

Current Version | Previous Version | Graphics & Text | Print | Product List | Glossary On
Versions: 1 2 3 4 5 6 7 8 9 10 11 12 13 14 15 16 17 18 19 20 21 22 23 24 25 26 27 28 29 30 31 32 33 34 35 36 37 38 39 40 41 42 43 44 45 46 47 48 49 50
000
ASUS42 KCHS 180427
RWRCHS

REGIONAL WEATHER ROUNDUP
NATIONAL WEATHER SERVICE CHARLESTON SC
1200 AM EDT WED OCT 18 2017

NOTE: "FAIR" INDICATES FEW OR NO CLOUDS BELOW 12,000 FEET WITH NO
SIGNIFICANT WEATHER AND/OR OBSTRUCTIONS TO VISIBILITY.

NOT ALL STATIONS ARE QUALITY CONTROLLED. USE DATA WITH CAUTION...
ESPECIALLY DEWPOINT OBSERVATIONS.

SCZ027-030-031-034>040-042>050-180500-
...SOUTHEAST SOUTH CAROLINA...

CITY           SKY/WX    TMP DP  RH WIND       PRES   REMARKS
N CHARLESTON   CLEAR     52  46  80 N7        30.27F
WATERFRONT PRK   N/A     62  52  69 NE13      30.12S
JOHNS ISLAND   FAIR      59  46  63 N7        30.26S
PINOPOLIS        N/A     61  52  72 NE15      30.19F
MONCKS CORNER  FAIR      52  45  76 NE3       30.28S
SUMMERVILLE    FAIR      46  46 100 CALM      30.29S
BEAUFORT MCAS  CLEAR     59  48  67 MISG      30.26F
BEAUFORT ARPT  FAIR      59  48  67 NE16      30.25F
HILTON HEAD IS CLEAR     63  46  55 NE15      30.25F
WALTERBORO     CLEAR     45  43  93 CALM      30.29S
ALLENDALE      NOT AVBL

...SOUTHERN MIDLANDS AND PEE DEE...

CITY           SKY/WX    TMP DP  RH WIND       PRES   REMARKS
GEORGETOWN     FAIR      50  46  87 N6        30.29S
KINGSTREE      FAIR      46  45  93 CALM      30.29F
ORANGEBURG     CLEAR     50  41  71 NE3       30.30S
BARNWELL         N/A     48  45  87 CALM      30.29F
AIKEN          FAIR      45  41  87 CALM      30.33S
MANNING        FOG       45  45 100 MISG      30.29F VSB<1/4
COLUMBIA       CLEAR     47  45  93 CALM      30.30S
SUMTER         CLEAR     49  40  71 NE6       30.28S
FLORENCE       CLEAR     49  43  80 NE7       30.31F
MYRTLE BEACH   CLEAR     53  46  77 NE8       30.30F
N MYRTLE BEACH CLEAR     50  46  86 NE7       30.29F

$$

GAZ063-065-086>088-099>101-113>116-118-119-134>141-150-180500-
...SOUTHEAST GEORGIA...

CITY           SKY/WX    TMP DP  RH WIND       PRES   REMARKS
SAVANNAH ARPT  CLEAR     56  48  74 NE9       30.26
HUNTER AAF     CLEAR     58  47  66 N6        30.22F
FORT STEWART   CLEAR     54  46  75 N5        30.23F
STATESBORO     CLEAR     49  43  79 CALM      30.27F
SYLVANIA       CLEAR     52  45  78 E3        30.28F
CLAXTON        FAIR      47  47  97 CALM      30.27F

...CSRA...CENTRAL AND FAR SOUTHEAST GEORGIA...

CITY           SKY/WX    TMP DP  RH WIND       PRES   REMARKS
THOMSON        CLEAR     45  43  94 CALM      30.34F
AUGUSTA-BUSH   CLEAR     47  44  90 CALM      30.30R
AUGUSTA-DANIEL CLEAR     58  41  53 NE6       30.30S
SWAINSBORO     FAIR      52  45  76 MISG      30.28F
VIDALIA        CLEAR     54  45  71 NE5       30.27S
EASTMAN        FAIR      54  34  46 NE3       30.29S
HAZLEHURST     FAIR      55  37  51 CALM      30.25S
ALMA           CLEAR     55  42  61 VRB3      30.24F
WAYCROSS       CLEAR     53  43  67 NE5       30.23F
JESUP          NOT AVBL
BAXLEY         FAIR      52  43  71 NE5       30.24F
BRUNSWICK      CLEAR     59  50  72 N6        30.21F
SAINT SIMONS   CLEAR     68  58  70 NE13      30.19F

$$

SCZ027-028-034-036>038-045-046-048>050-GAZ119-141-180500-
...LAKE AND SUPPLEMENTAL COASTAL OBSERVATIONS...

STATION/POSITION TIME  TEMP    WIND        PRES    WAVE   SWELL
                       AIR SEA DIR/SP/G            HT/PER HT/PER/DIR
                 (UTC) (F)     (DEG/KT/KT) (MB)    (FT/S) (FT/S/D)
WINYAH BAY       0330   56     360/  7     1025.0S
LAKE MURRAY      0420   55      40/  2/  4 1025.4
ACE BASIN NERRS  0345   58      20/  2     1025.0S
FORT PULASKI     0400   65 75   40/ 12/ 16 1024.2
SAPELO ISLAND    0400   66      40/  9     1023.0

$$

ANZ835-935-AMZ111-154-330-350-352-354-370-450-454-472-180500-
...C-MAN AND BUOY OBSERVATIONS...

STATION/POSITION TIME  TEMP    WIND        PRES    WAVE   SWELL
                       AIR SEA DIR/SP/G            HT/PER HT/PER/DIR
                 (UTC) (F)     (DEG/KT/KT) (MB)    (FT/S) (FT/S/D)
BUOY 41004       0410   69 80   40/ 23/ 29 1022.6
BUOY 41008       0350   71 78   60/ 21/ 25 1021.9F   7/11   3/ 90/11
FOLLY BEACH CMAN 0400   62      20/ 16/ 20 1024.8F
CAPERS NEARSHORE 0408   63 75   30/ 17/ 23 1023.8F
FRIPP NEARSHORE  0408   66      40/ 17/ 23   N/A


STATION/POSITION TIME  TEMP    WIND        PRES    WAVE   SWELL
                       AIR SEA DIR/SP/G            HT/PER HT/PER/DIR
                 (UTC) (F)     (DEG/KT/KT) (MB)    (FT/S) (FT/S/D)
5E ST. MARYS GA  0400      79                N/A     7/11   3/ 90/11
FRYING PAN BUOY  0410   67 77   30/ 17/ 23 1023.7
BUOY 41025       0350   66 81   20/ 19/ 23 1023.9F   6/10   3/110/10
CAPE LOOKOUT NC  0400   58     360/ 12/ 16 1025.1R
BUOY 41002       0350   75 79   50/ 19/ 23 1019.7F  10/ 9   7/ 30/ 9
BUOY 41010       NOT AVBL
ST AUGUSTINE FL  0400   75 78   30/ 26/ 30 1020.2F


$$



USA.gov is the U.S. government's official web portal to all federal, state and local government web resources and services.